Location: Hains Lake
(37.8540°N, 99.8578°W)
Time: 03:43:52
(UTC+00:00)

Vanguard 1 - Pass Details

Date: 06 December 2021
Orbit: 652 x 3830 km, 34.2° (Epoch: 21 January)

Event Time Altitude Azimuth Distance (km) Brightness Sun altitude
Rises 03:03:29 0° 198° (SSW) 5,990 14.2 -43.4°
Reaches altitude 10° 03:07:42 10° 188° (S) 5,407 13.8 -44.2°
Enters shadow 03:14:16 24° 166° (SSE) 4,875 13.3 -45.5°
